Hourly Data Report for July 25, 2021

ALGONQUIN PARK EAST GATE
ONTARIO
Current Station Operator: ECCC - MSC

45°32'00.000" N
78°16'00.000" W
397.00 m
6080192
71581
TNK

Download Data

Hourly Data (July 2021)
Hourly Data Report for July 25, 2021
TIME
LST
Temp Definition
°C
Dew Point Definition
°C
Rel Hum Definition
%
Precip. Amount Definition
mm

Wind Dir Definition
10's deg

Wind Spd Definition
km/h
Visibility Definition
km
Stn Press Definition
kPa
Hmdx Definition


Wind Chill Definition


Weather Definition


00:00 19.9 19.2 96 0.0 27 8   95.72     LegendNANA
01:00 18.8 17.8 94 0.0 26 6   95.86     LegendNANA
02:00 18.0 17.2 95 0.0 26 6   95.92     LegendNANA
03:00 17.4 16.8 96 0.0 26 5   95.95     LegendNANA
04:00 17.2 16.1 93 0.0 28 5   96.02     LegendNANA
05:00 16.5 15.9 96 0.0 18 2   96.07     LegendNANA
06:00 17.1 16.4 96 0.0 0 1   96.16     LegendNANA
07:00 17.8 17.0 96 0.0 25 1   96.20     LegendNANA
08:00 18.5 16.7 89 0.0 25 2   96.25     LegendNANA
09:00 19.5 16.5 83 0.0 26 4   96.27     LegendNANA
10:00 21.3 16.7 75 0.0 25 5   96.28 26   LegendNANA
11:00 22.7 15.4 63 0.0 28 5   96.30 27   LegendNANA
12:00 24.0 16.4 62 0.0 28 5   96.29 29   LegendNANA
13:00 25.6 16.3 56 0.0 27 8   96.28 30   LegendNANA
14:00 26.1 15.3 51 0.0 26 5   96.26 30   LegendNANA
15:00 26.6 16.1 52 0.0 26 5   96.21 31   LegendNANA
16:00 25.9 15.6 53 0.0 24 10   96.20 30   LegendNANA
17:00 25.1 14.7 52 0.0 25 7   96.21 29   LegendNANA
18:00 23.7 15.5 60 0.0 27 5   96.21 28   LegendNANA
19:00 22.1 15.8 67 0.0 27 4   96.28 27   LegendNANA
20:00 18.9 15.8 82 0.0 25 2   96.32     LegendNANA
21:00 17.4 15.6 89 0.0 21 1   96.40     LegendNANA
22:00 16.6 15.3 92 0.0 17 1   96.42     LegendNANA
23:00 16.0 15.2 95 0.0   0   96.46     LegendNANA

Notes on Data Quality.

Legend

  • E = Estimated
  • M = Missing
  • NA = Not Available*
  • [empty] = Indicates an unobserved value
Date modified: